| time (UTC) | temp F | wind direction | speed knots | gust knots | rain 1hr in | rain 24hr in | rain mn in | humidity % | barometer mb |
| 20260506051002 | 38 | 116 | 1.7 | 2.6 | 0.00 | 0.00 | 0.00 | 68 | 1016.1 |
| 20260506045003 | 39 | 125 | 1.7 | 2.6 | 0.00 | 0.00 | 0.00 | 62 | 1016.1 |
| 20260506043003 | 39 | 120 | 1.7 | 1.7 | 0.00 | 0.00 | 0.00 | 62 | 1016.0 |
| 20260506042002 | 40 | 109 | 0.9 | 1.7 | 0.00 | 0.00 | 0.00 | 59 | 1015.9 |
| 20260506041003 | 41 | 94 | 1.7 | 1.7 | 0.00 | 0.00 | 0.00 | 58 | 1016.0 |
| 20260506040003 | 41 | 83 | 1.7 | 1.7 | 0.00 | 0.00 | 0.00 | 56 | 1015.8 |
| 20260506035003 | 43 | 118 | 0.9 | 2.6 | 0.00 | 0.00 | 0.00 | 54 | 1016.1 |
| 20260506034002 | 43 | 74 | 1.7 | 2.6 | 0.00 | 0.00 | 0.00 | 52 | 1016.1 |
| 20260506033003 | 44 | 54 | 0.9 | 2.6 | 0.00 | 0.00 | 0.00 | 51 | 1015.9 |
| 20260506032003 | 43 | 59 | 0.9 | 2.6 | 0.00 | 0.00 | 0.00 | 51 | 1015.8 |
| 20260506031003 | 44 | 320 | 1.7 | 1.7 | 0.00 | 0.00 | 0.00 | 50 | 1015.8 |
| 20260506030002 | 44 | 248 | 0.9 | 4.3 | 0.00 | 0.00 | 0.00 | 49 | 1015.7 |
| 20260506025002 | 44 | 296 | 1.7 | 2.6 | 0.00 | 0.00 | 0.00 | 49 | 1015.6 |
| 20260506024003 | 45 | 40 | 1.7 | 2.6 | 0.00 | 0.00 | 0.00 | 48 | 1015.6 |
| 20260506023003 | 45 | 43 | 1.7 | 6.1 | 0.00 | 0.00 | 0.00 | 47 | 1015.5 |
| 20260506022003 | 46 | 295 | 2.6 | 7.0 | 0.00 | 0.00 | 0.00 | 46 | 1015.3 |
| 20260506021003 | 46 | 314 | 2.6 | 7.0 | 0.00 | 0.00 | 0.00 | 47 | 1015.2 |
| 20260506020003 | 46 | 310 | 4.3 | 8.7 | 0.00 | 0.00 | 0.00 | 44 | 1015.2 |
| 20260506015003 | 46 | 334 | 3.5 | 8.7 | 0.00 | 0.00 | 0.00 | 45 | 1015.0 |
| 20260506014003 | 47 | 3 | 5.2 | 12.2 | 0.00 | 0.00 | 0.00 | 45 | 1014.9 |
| 20260506013003 | 46 | 295 | 3.5 | 10.4 | 0.00 | 0.00 | 0.00 | 44 | 1014.7 |
| 20260506011002 | 47 | 341 | 5.2 | 14.8 | 0.00 | 0.00 | 0.00 | 42 | 1014.4 |
| 20260506010002 | 47 | 316 | 2.6 | 17.4 | 0.00 | 0.00 | 0.00 | 42 | 1014.6 |
| 20260506005003 | 48 | 321 | 5.2 | 14.8 | 0.00 | 0.00 | 0.00 | 41 | 1014.4 |
| 20260506004003 | 48 | 297 | 7.0 | 21.7 | 0.00 | 0.00 | 0.00 | 40 | 1014.5 |
| 20260506003004 | 48 | 294 | 11.3 | 20.9 | 0.00 | 0.00 | 0.00 | 39 | 1014.3 |
| 20260506002003 | 49 | 301 | 7.8 | 19.1 | 0.00 | 0.00 | 0.00 | 39 | 1014.2 |
| 20260506001002 | 49 | 319 | 5.2 | 25.2 | 0.00 | 0.00 | 0.00 | 39 | 1014.3 |
| 20260506000002 | 50 | 305 | 10.4 | 25.2 | 0.00 | 0.00 | 0.00 | 38 | 1014.1 |
| 20260505235003 | 50 | 303 | 6.1 | 20.0 | 0.00 | 0.00 | 0.00 | 38 | 1014.1 |
| 20260505234003 | 50 | 320 | 10.4 | 20.0 | 0.00 | 0.00 | 0.00 | 38 | 1014.2 |
| 20260505233003 | 50 | 319 | 9.6 | 24.3 | 0.00 | 0.00 | 0.00 | 37 | 1014.2 |
| 20260505232003 | 51 | 299 | 12.2 | 17.4 | 0.00 | 0.00 | 0.00 | 37 | 1014.3 |
| 20260505230002 | 51 | 289 | 12.2 | 26.1 | 0.00 | 0.00 | 0.00 | 37 | 1014.1 |
| 20260505225003 | 52 | 273 | 12.2 | 22.6 | 0.00 | 0.00 | 0.00 | 36 | 1013.7 |
| 20260505224003 | 51 | 286 | 7.8 | 24.3 | 0.00 | 0.00 | 0.00 | 36 | 1013.7 |
| 20260505223003 | 52 | 303 | 12.2 | 24.3 | 0.00 | 0.00 | 0.00 | 36 | 1013.7 |
| 20260505221003 | 52 | 319 | 12.2 | 24.3 | 0.00 | 0.00 | 0.00 | 36 | 1013.5 |
| 20260505220003 | 52 | 292 | 16.5 | 24.3 | 0.00 | 0.00 | 0.00 | 36 | 1013.5 |
| 20260505215003 | 53 | 275 | 9.6 | 21.7 | 0.00 | 0.00 | 0.00 | 34 | 1013.5 |
| 20260505214003 | 52 | 299 | 13.9 | 25.2 | 0.00 | 0.00 | 0.00 | 34 | 1013.7 |
| 20260505213002 | 53 | 300 | 11.3 | 20.0 | 0.00 | 0.00 | 0.00 | 37 | 1013.4 |
| 20260505212004 | 52 | 299 | 9.6 | 22.6 | 0.00 | 0.00 | 0.00 | 37 | 1013.3 |
| 20260505211003 | 51 | 280 | 8.7 | 21.7 | 0.00 | 0.00 | 0.00 | 36 | 1013.3 |
| 20260505210003 | 54 | 274 | 8.7 | 20.9 | 0.00 | 0.00 | 0.00 | 36 | 1013.1 |
| 20260505205003 | 52 | 278 | 8.7 | 25.2 | 0.00 | 0.00 | 0.00 | 36 | 1013.0 |
| 20260505204002 | 53 | 297 | 11.3 | 21.7 | 0.00 | 0.00 | 0.00 | 38 | 1013.3 |
| 20260505203003 | 52 | 247 | 8.7 | 20.0 | 0.00 | 0.00 | 0.00 | 37 | 1013.1 |
| 20260505202004 | 55 | 240 | 6.1 | 20.9 | 0.00 | 0.00 | 0.00 | 34 | 1013.3 |
| 20260505200003 | 53 | 259 | 7.0 | 20.0 | 0.00 | 0.00 | 0.00 | 37 | 1013.2 |
| 20260505195003 | 52 | 286 | 9.6 | 26.1 | 0.00 | 0.00 | 0.00 | 37 | 1013.3 |
| 20260505194003 | 53 | 297 | 13.0 | 26.1 | 0.00 | 0.00 | 0.00 | 39 | 1013.0 |
| 20260505193003 | 53 | 275 | 7.0 | 20.0 | 0.00 | 0.00 | 0.00 | 38 | 1012.8 |
| 20260505192003 | 52 | 290 | 8.7 | 24.3 | 0.00 | 0.00 | 0.00 | 38 | 1012.8 |
| 20260505191002 | 53 | 281 | 9.6 | 19.1 | 0.00 | 0.00 | 0.00 | 37 | 1012.7 |
| 20260505190003 | 54 | 257 | 4.3 | 20.0 | 0.00 | 0.00 | 0.00 | 37 | 1012.6 |
| 20260505185003 | 54 | 287 | 7.8 | 18.2 | 0.00 | 0.00 | 0.00 | 36 | 1012.8 |
| 20260505184002 | 53 | 279 | 13.0 | 19.1 | 0.00 | 0.00 | 0.00 | 36 | 1012.7 |
| 20260505183004 | 54 | 282 | 10.4 | 26.1 | 0.00 | 0.00 | 0.00 | 34 | 1012.3 |
| 20260505182003 | 52 | 299 | 11.3 | 22.6 | 0.00 | 0.00 | 0.00 | 36 | 1012.5 |
| 20260505180003 | 54 | 234 | 7.0 | 13.9 | 0.00 | 0.00 | 0.00 | 34 | 1012.3 |
| 20260505175003 | 53 | 232 | 7.8 | 20.9 | 0.00 | 0.00 | 0.00 | 34 | 1012.4 |
| 20260505174003 | 52 | 264 | 8.7 | 18.2 | 0.00 | 0.00 | 0.00 | 36 | 1012.3 |
| 20260505172003 | 52 | 262 | 7.8 | 19.1 | 0.00 | 0.00 | 0.00 | 40 | 1012.4 |
| 20260505171003 | 51 | 290 | 10.4 | 18.2 | 0.00 | 0.00 | 0.00 | 38 | 1012.1 |
| 20260505170003 | 51 | 223 | 4.3 | 13.0 | 0.00 | 0.00 | 0.00 | 43 | 1012.0 |
| 20260505165002 | 50 | 269 | 7.8 | 20.0 | 0.00 | 0.00 | 0.00 | 44 | 1011.9 |
| 20260505164003 | 51 | 286 | 6.1 | 17.4 | 0.00 | 0.00 | 0.00 | 43 | 1011.9 |
| 20260505163003 | 50 | 242 | 5.2 | 20.0 | 0.00 | 0.00 | 0.00 | 44 | 1012.0 |
| 20260505162002 | 50 | 220 | 5.2 | 21.7 | 0.00 | 0.00 | 0.00 | 44 | 1012.0 |
| 20260505161003 | 50 | 292 | 8.7 | 18.2 | 0.00 | 0.00 | 0.00 | 45 | 1011.8 |
| 20260505153003 | 49 | 284 | 7.8 | 17.4 | 0.00 | 0.00 | 0.00 | 46 | 1011.8 |
| 20260505152002 | 50 | 266 | 7.8 | 18.2 | 0.00 | 0.00 | 0.00 | 46 | 1012.0 |
| 20260505151003 | 49 | 318 | 5.2 | 20.0 | 0.00 | 0.00 | 0.00 | 46 | 1012.1 |
| 20260505125003 | 46 | 216 | 4.3 | 11.3 | 0.00 | 0.00 | 0.00 | 53 | 1011.8 |
| 20260505124003 | 46 | 254 | 2.6 | 13.0 | 0.00 | 0.00 | 0.00 | 53 | 1011.3 |
| 20260505123003 | 45 | 247 | 2.6 | 10.4 | 0.00 | 0.00 | 0.00 | 53 | 1011.1 |
| 20260505122003 | 45 | 217 | 4.3 | 8.7 | 0.00 | 0.00 | 0.00 | 53 | 1011.0 |
| 20260505121003 | 44 | 281 | 2.6 | 7.8 | 0.00 | 0.00 | 0.00 | 54 | 1011.1 |
| 20260505115003 | 43 | 264 | 2.6 | 8.7 | 0.00 | 0.00 | 0.00 | 57 | 1010.8 |
| 20260505113003 | 41 | 336 | 2.6 | 6.1 | 0.00 | 0.00 | 0.00 | 59 | 1010.8 |
| 20260505112003 | 41 | 136 | 0.9 | 4.3 | 0.00 | 0.00 | 0.00 | 60 | 1010.6 |
| 20260505111003 | 40 | 110 | 2.6 | 4.3 | 0.00 | 0.00 | 0.00 | 61 | 1010.5 |
| 20260505102004 | 41 | 182 | 1.7 | 2.6 | 0.00 | 0.00 | 0.00 | 59 | 1009.9 |
| 20260505101003 | 41 | 178 | 0.9 | 4.3 | 0.00 | 0.00 | 0.00 | 57 | 1009.7 |
| 20260505100003 | 41 | 166 | 1.7 | 4.3 | 0.00 | 0.00 | 0.00 | 55 | 1009.6 |
| 20260505095003 | 41 | 153 | 1.7 | 4.3 | 0.00 | 0.00 | 0.00 | 55 | 1009.8 |
| 20260505094003 | 41 | 148 | 0.9 | 2.6 | 0.00 | 0.00 | 0.00 | 56 | 1009.4 |
| 20260505093003 | 41 | 140 | 0.9 | 2.6 | 0.00 | 0.00 | 0.00 | 55 | 1009.3 |
| 20260505092003 | 41 | 145 | 1.7 | 2.6 | 0.00 | 0.00 | 0.00 | 53 | 1009.1 |
| 20260505090003 | 42 | 157 | 1.7 | 2.6 | 0.00 | 0.00 | 0.00 | 51 | 1008.7 |
| 20260505085003 | 43 | 150 | 0.9 | 2.6 | 0.00 | 0.00 | 0.00 | 49 | 1008.4 |
| 20260505084004 | 44 | 317 | 1.7 | 4.3 | 0.00 | 0.00 | 0.00 | 48 | 1008.1 |
| 20260505082003 | 44 | 36 | 1.7 | 6.1 | 0.00 | 0.00 | 0.00 | 48 | 1008.3 |
| 20260505080003 | 45 | 296 | 5.2 | 13.9 | 0.00 | 0.00 | 0.00 | 44 | 1008.1 |
| 20260505075003 | 45 | 293 | 6.1 | 18.2 | 0.00 | 0.00 | 0.00 | 44 | 1008.0 |
| 20260505073003 | 46 | 296 | 10.4 | 19.1 | 0.00 | 0.00 | 0.00 | 42 | 1008.0 |
| 20260505072003 | 46 | 286 | 7.8 | 15.6 | 0.00 | 0.00 | 0.00 | 43 | 1007.6 |
| 20260505071003 | 46 | 294 | 8.7 | 22.6 | 0.00 | 0.00 | 0.00 | 42 | 1007.9 |
| 20260505070003 | 47 | 314 | 7.8 | 19.1 | 0.00 | 0.00 | 0.00 | 46 | 1007.8 |
| 20260505065003 | 47 | 324 | 9.6 | 18.2 | 0.00 | 0.00 | 0.00 | 46 | 1007.4 |
| 20260505064003 | 48 | 308 | 8.7 | 15.6 | 0.00 | 0.00 | 0.00 | 47 | 1007.4 |
| 20260505062003 | 49 | 301 | 11.3 | 18.2 | 0.00 | 0.00 | 0.00 | 47 | 1007.2 |
| 20260505061003 | 49 | 301 | 11.3 | 26.1 | 0.00 | 0.00 | 0.00 | 47 | 1006.9 |
| 20260505060003 | 50 | 300 | 8.7 | 21.7 | 0.00 | 0.00 | 0.00 | 48 | 1006.9 |